Time,TemperatureF,DewpointF,PressureIn,WindDirection,WindDirectionDegrees,WindSpeedMPH,WindSpeedGustMPH,Humidity,HourlyPrecipIn,Conditions,Clouds,dailyrainin,SoftwareType,DateUTC
2013-08-29 00:02:00,69.4,58.0,29.84,East,95,0.0,0.0,67,0.00,,CLR,0.00,VWS V14.01,2013-08-29 07:02:00,
2013-08-29 00:07:00,69.1,57.7,29.84,East,82,0.0,1.0,67,0.00,,CLR,0.00,VWS V14.01,2013-08-29 07:07:00,
2013-08-29 00:12:00,68.8,58.2,29.85,SE,145,0.0,2.0,69,0.00,,CLR,0.00,VWS V14.01,2013-08-29 07:12:00,
2013-08-29 00:17:00,69.0,58.0,29.85,SSE,147,0.0,2.0,68,0.00,,CLR,0.00,VWS V14.01,2013-08-29 07:17:00,
2013-08-29 00:23:00,69.2,57.8,29.84,SE,137,0.0,2.0,67,0.00,,CLR,0.00,VWS V14.01,2013-08-29 07:23:00,
2013-08-29 00:28:00,69.3,57.9,29.85,SSE,166,0.0,2.0,67,0.00,,CLR,0.00,VWS V14.01,2013-08-29 07:28:00,
2013-08-29 00:33:00,69.2,57.8,29.85,ESE,116,1.0,1.0,67,0.00,,CLR,0.00,VWS V14.01,2013-08-29 07:33:00,
2013-08-29 00:38:00,69.2,57.8,29.85,SSE,150,0.0,1.0,67,0.00,,CLR,0.00,VWS V14.01,2013-08-29 07:38:00,
2013-08-29 00:43:00,69.2,57.8,29.85,ESE,121,1.0,3.0,67,0.00,,CLR,0.00,VWS V14.01,2013-08-29 07:43:00,
2013-08-29 00:48:00,69.6,58.2,29.85,South,169,0.0,3.0,67,0.00,,CLR,0.00,VWS V14.01,2013-08-29 07:48:00,
2013-08-29 00:53:00,69.8,58.4,29.85,SW,215,3.0,4.0,67,0.00,,CLR,0.00,VWS V14.01,2013-08-29 07:53:00,
2013-08-29 00:58:00,69.8,58.4,29.86,SW,215,3.0,4.0,67,0.00,,CLR,0.00,VWS V14.01,2013-08-29 07:58:00,
2013-08-29 01:03:00,69.9,58.9,29.85,South,173,1.0,3.0,68,0.00,,CLR,0.00,VWS V14.01,2013-08-29 08:03:00,
2013-08-29 01:08:00,69.9,58.9,29.86,SSW,198,0.0,3.0,68,0.00,,CLR,0.00,VWS V14.01,2013-08-29 08:08:00,
2013-08-29 01:13:00,69.7,58.7,29.86,SW,234,0.0,3.0,68,0.00,,CLR,0.00,VWS V14.01,2013-08-29 08:13:00,
2013-08-29 01:18:00,69.3,58.7,29.86,SW,235,0.0,3.0,69,0.00,,CLR,0.00,VWS V14.01,2013-08-29 08:18:00,
2013-08-29 01:23:00,69.0,58.4,29.86,SSW,203,0.0,3.0,69,0.00,,CLR,0.00,VWS V14.01,2013-08-29 08:23:00,
2013-08-29 01:28:00,68.5,58.3,29.86,ESE,106,1.0,3.0,70,0.00,,CLR,0.00,VWS V14.01,2013-08-29 08:28:00,
2013-08-29 01:33:00,68.3,58.5,29.86,SSE,150,0.0,0.0,71,0.00,,CLR,0.00,VWS V14.01,2013-08-29 08:33:00,
2013-08-29 01:38:00,68.1,58.3,29.86,South,172,0.0,2.0,71,0.00,,CLR,0.00,VWS V14.01,2013-08-29 08:38:00,
2013-08-29 01:43:00,68.4,58.2,29.86,SSE,149,0.0,2.0,70,0.00,,CLR,0.00,VWS V14.01,2013-08-29 08:43:00,
2013-08-29 01:48:00,68.9,58.3,29.86,SSE,149,2.0,4.0,69,0.00,,CLR,0.00,VWS V14.01,2013-08-29 08:48:00,
2013-08-29 01:53:00,68.9,58.7,29.86,SSW,198,3.0,4.0,70,0.00,,CLR,0.00,VWS V14.01,2013-08-29 08:53:00,
2013-08-29 01:58:00,68.9,58.7,29.86,SSW,195,1.0,5.0,70,0.00,,CLR,0.00,VWS V14.01,2013-08-29 08:58:00,
2013-08-29 02:03:00,68.8,58.6,29.86,South,184,2.0,5.0,70,0.00,,CLR,0.00,VWS V14.01,2013-08-29 09:03:00,
2013-08-29 02:08:00,68.6,58.8,29.86,SSW,204,1.0,5.0,71,0.00,,CLR,0.00,VWS V14.01,2013-08-29 09:08:00,
2013-08-29 02:13:00,68.4,58.6,29.86,SSW,198,0.0,5.0,71,0.00,,CLR,0.00,VWS V14.01,2013-08-29 09:13:00,
2013-08-29 02:18:00,68.1,58.3,29.86,East,94,3.0,5.0,71,0.00,,CLR,0.00,VWS V14.01,2013-08-29 09:18:00,
2013-08-29 02:23:00,67.7,58.4,29.86,East,91,1.0,5.0,72,0.00,,CLR,0.00,VWS V14.01,2013-08-29 09:23:00,
2013-08-29 02:28:00,67.4,58.1,29.86,SE,135,2.0,5.0,72,0.00,,CLR,0.00,VWS V14.01,2013-08-29 09:28:00,
2013-08-29 02:33:00,67.3,58.4,29.86,SSE,162,1.0,1.0,73,0.00,,CLR,0.00,VWS V14.01,2013-08-29 09:33:00,
2013-08-29 02:38:00,67.1,58.2,29.86,South,179,0.0,2.0,73,0.00,,CLR,0.00,VWS V14.01,2013-08-29 09:38:00,
2013-08-29 02:43:00,66.9,58.3,29.87,SSE,162,0.0,3.0,74,0.00,,CLR,0.00,VWS V14.01,2013-08-29 09:43:00,
2013-08-29 02:48:00,66.9,58.7,29.87,SSE,165,1.0,4.0,75,0.00,,CLR,0.00,VWS V14.01,2013-08-29 09:48:00,
2013-08-29 02:53:00,66.7,58.5,29.87,SSE,155,1.0,4.0,75,0.00,,CLR,0.00,VWS V14.01,2013-08-29 09:53:00,
2013-08-29 02:58:00,66.7,58.5,29.87,South,169,0.0,4.0,75,0.00,,CLR,0.00,VWS V14.01,2013-08-29 09:58:00,
2013-08-29 03:04:00,66.5,58.7,29.87,SSW,194,0.0,2.0,76,0.00,,CLR,0.00,VWS V14.01,2013-08-29 10:04:00,
2013-08-29 03:09:00,66.4,58.6,29.87,SSW,205,0.0,2.0,76,0.00,,CLR,0.00,VWS V14.01,2013-08-29 10:09:00,
2013-08-29 03:14:00,66.2,58.4,29.87,SSE,152,0.0,2.0,76,0.00,,CLR,0.00,VWS V14.01,2013-08-29 10:14:00,
2013-08-29 03:19:00,66.3,58.5,29.87,WSW,252,0.0,3.0,76,0.00,,CLR,0.00,VWS V14.01,2013-08-29 10:19:00,
2013-08-29 03:24:00,66.2,58.4,29.87,SSE,165,0.0,3.0,76,0.00,,CLR,0.00,VWS V14.01,2013-08-29 10:24:00,
2013-08-29 03:29:00,66.0,58.2,29.87,South,183,0.0,3.0,76,0.00,,CLR,0.00,VWS V14.01,2013-08-29 10:29:00,
2013-08-29 03:34:00,65.9,58.1,29.87,SSW,205,0.0,1.0,76,0.00,,CLR,0.00,VWS V14.01,2013-08-29 10:34:00,
2013-08-29 03:39:00,65.8,58.0,29.87,SSW,193,0.0,1.0,76,0.00,,CLR,0.00,VWS V14.01,2013-08-29 10:39:00,
2013-08-29 03:44:00,65.5,58.1,29.88,West,260,0.0,1.0,77,0.00,,CLR,0.00,VWS V14.01,2013-08-29 10:44:00,
2013-08-29 03:49:00,65.4,58.0,29.87,South,169,0.0,1.0,77,0.00,,CLR,0.00,VWS V14.01,2013-08-29 10:49:00,
2013-08-29 03:54:00,65.2,57.8,29.88,SE,139,0.0,1.0,77,0.00,,CLR,0.00,VWS V14.01,2013-08-29 10:54:00,
2013-08-29 03:59:00,65.0,58.0,29.87,SSE,152,0.0,1.0,78,0.00,,CLR,0.00,VWS V14.01,2013-08-29 10:59:00,
2013-08-29 04:04:00,64.6,57.2,29.88,SSE,154,0.0,0.0,77,0.00,,CLR,0.00,VWS V14.01,2013-08-29 11:04:00,
2013-08-29 04:09:00,64.2,57.6,29.87,SSE,158,0.0,0.0,79,0.00,,CLR,0.00,VWS V14.01,2013-08-29 11:09:00,
2013-08-29 04:14:00,63.9,57.6,29.87,SSE,150,0.0,0.0,80,0.00,,CLR,0.00,VWS V14.01,2013-08-29 11:14:00,
2013-08-29 04:19:00,63.7,57.8,29.87,SSE,153,0.0,0.0,81,0.00,,CLR,0.00,VWS V14.01,2013-08-29 11:19:00,
2013-08-29 04:24:00,63.7,57.8,29.88,South,170,0.0,1.0,81,0.00,,CLR,0.00,VWS V14.01,2013-08-29 11:24:00,
2013-08-29 04:29:00,64.0,58.1,29.88,South,187,0.0,2.0,81,0.00,,CLR,0.00,VWS V14.01,2013-08-29 11:29:00,
2013-08-29 04:34:00,64.4,58.1,29.88,SSW,204,2.0,4.0,80,0.00,,CLR,0.00,VWS V14.01,2013-08-29 11:34:00,
2013-08-29 04:39:00,64.7,58.0,29.88,SSW,204,0.0,5.0,79,0.00,,CLR,0.00,VWS V14.01,2013-08-29 11:39:00,
2013-08-29 04:44:00,64.8,58.1,29.88,South,184,2.0,5.0,79,0.00,,CLR,0.00,VWS V14.01,2013-08-29 11:44:00,
2013-08-29 04:49:00,64.8,58.1,29.88,South,172,1.0,5.0,79,0.00,,CLR,0.00,VWS V14.01,2013-08-29 11:49:00,
2013-08-29 04:54:00,64.8,58.5,29.88,SSE,160,1.0,5.0,80,0.00,,CLR,0.00,VWS V14.01,2013-08-29 11:54:00,
2013-08-29 04:59:00,64.6,58.3,29.88,SSW,207,0.0,5.0,80,0.00,,CLR,0.00,VWS V14.01,2013-08-29 11:59:00,
2013-08-29 05:04:00,64.5,58.9,29.89,South,169,0.0,1.0,82,0.00,,CLR,0.00,VWS V14.01,2013-08-29 12:04:00,
2013-08-29 05:09:00,64.3,58.3,29.89,South,169,0.0,1.0,81,0.00,,CLR,0.00,VWS V14.01,2013-08-29 12:09:00,
2013-08-29 05:14:00,64.0,57.4,29.89,SW,233,0.0,1.0,79,0.00,,CLR,0.00,VWS V14.01,2013-08-29 12:14:00,
2013-08-29 05:19:00,63.5,56.9,29.89,SW,233,0.0,1.0,79,0.00,,CLR,0.00,VWS V14.01,2013-08-29 12:19:00,
2013-08-29 05:24:00,62.9,56.3,29.89,SW,233,0.0,1.0,79,0.00,,CLR,0.00,VWS V14.01,2013-08-29 12:24:00,
2013-08-29 05:29:00,62.4,55.8,29.89,SW,233,0.0,1.0,79,0.00,,CLR,0.00,VWS V14.01,2013-08-29 12:29:00,
2013-08-29 05:35:00,62.0,55.8,29.89,SW,233,0.0,1.0,80,0.00,,CLR,0.00,VWS V14.01,2013-08-29 12:35:00,
2013-08-29 05:40:00,61.7,55.8,29.90,SW,235,0.0,1.0,81,0.00,,CLR,0.00,VWS V14.01,2013-08-29 12:40:00,
2013-08-29 05:45:00,61.6,56.1,29.90,SW,225,0.0,1.0,82,0.00,,CLR,0.00,VWS V14.01,2013-08-29 12:45:00,
2013-08-29 05:50:00,61.6,56.4,29.90,South,169,0.0,1.0,83,0.00,,CLR,0.00,VWS V14.01,2013-08-29 12:50:00,
2013-08-29 05:55:00,61.6,56.1,29.90,South,169,0.0,1.0,82,0.00,,CLR,0.00,VWS V14.01,2013-08-29 12:55:00,
2013-08-29 06:00:00,61.5,56.3,29.90,South,169,0.0,1.0,83,0.00,,CLR,0.00,VWS V14.01,2013-08-29 13:00:00,
2013-08-29 06:05:00,61.4,56.2,29.90,South,169,0.0,0.0,83,0.00,,CLR,0.00,VWS V14.01,2013-08-29 13:05:00,
2013-08-29 06:10:00,61.4,56.9,29.90,South,169,0.0,0.0,85,0.00,,CLR,0.00,VWS V14.01,2013-08-29 13:10:00,
2013-08-29 06:15:00,61.5,57.0,29.91,South,172,0.0,0.0,85,0.00,,CLR,0.00,VWS V14.01,2013-08-29 13:15:00,
2013-08-29 06:20:00,61.7,57.2,29.91,SSW,210,0.0,1.0,85,0.00,,CLR,0.00,VWS V14.01,2013-08-29 13:20:00,
2013-08-29 06:25:00,61.7,57.2,29.91,SSW,210,1.0,1.0,85,0.00,,CLR,0.00,VWS V14.01,2013-08-29 13:25:00,
2013-08-29 06:30:00,61.4,55.9,29.92,NNW,342,0.0,1.0,82,0.00,,CLR,0.00,VWS V14.01,2013-08-29 13:30:00,
2013-08-29 06:35:00,61.0,55.5,29.92,North,356,0.0,1.0,82,0.00,,CLR,0.00,VWS V14.01,2013-08-29 13:35:00,
2013-08-29 06:40:00,60.7,55.2,29.92,North,349,0.0,1.0,82,0.00,,CLR,0.00,VWS V14.01,2013-08-29 13:40:00,
2013-08-29 06:45:00,60.5,55.0,29.92,North,349,0.0,1.0,82,0.00,,CLR,0.00,VWS V14.01,2013-08-29 13:45:00,
2013-08-29 06:50:00,60.3,54.8,29.93,North,349,0.0,1.0,82,0.00,,CLR,0.00,VWS V14.01,2013-08-29 13:50:00,
2013-08-29 06:55:00,60.2,55.0,29.93,North,349,0.0,1.0,83,0.00,,CLR,0.00,VWS V14.01,2013-08-29 13:55:00,
2013-08-29 07:00:00,60.3,55.5,29.93,North,349,0.0,1.0,84,0.00,,CLR,0.00,VWS V14.01,2013-08-29 14:00:00,
2013-08-29 07:05:00,60.5,55.7,29.93,North,350,0.0,1.0,84,0.00,,CLR,0.00,VWS V14.01,2013-08-29 14:05:00,
2013-08-29 07:10:00,60.7,55.8,29.94,North,349,0.0,1.0,84,0.00,,CLR,0.00,VWS V14.01,2013-08-29 14:10:00,
2013-08-29 07:15:00,60.8,55.6,29.94,North,349,0.0,1.0,83,0.00,,CLR,0.00,VWS V14.01,2013-08-29 14:15:00,
2013-08-29 07:20:00,61.1,55.9,29.94,North,358,0.0,1.0,83,0.00,,CLR,0.00,VWS V14.01,2013-08-29 14:20:00,
2013-08-29 07:25:00,61.4,55.9,29.94,NNW,342,0.0,1.0,82,0.00,,CLR,0.00,VWS V14.01,2013-08-29 14:25:00,
2013-08-29 07:30:00,62.0,56.5,29.94,NNW,342,0.0,1.0,82,0.00,,CLR,0.00,VWS V14.01,2013-08-29 14:30:00,
2013-08-29 07:35:00,62.9,57.0,29.94,NNW,343,0.0,0.0,81,0.00,,CLR,0.00,VWS V14.01,2013-08-29 14:35:00,
2013-08-29 07:40:00,64.5,57.1,29.95,NNW,342,0.0,1.0,77,0.00,,CLR,0.00,VWS V14.01,2013-08-29 14:40:00,
2013-08-29 07:45:00,66.2,57.7,29.95,NNW,342,0.0,1.0,74,0.00,,CLR,0.00,VWS V14.01,2013-08-29 14:45:00,
2013-08-29 07:50:00,67.6,58.3,29.95,ESE,105,0.0,1.0,72,0.00,,CLR,0.00,VWS V14.01,2013-08-29 14:50:00,
2013-08-29 07:55:00,68.3,58.5,29.95,East,97,0.0,1.0,71,0.00,,CLR,0.00,VWS V14.01,2013-08-29 14:55:00,
2013-08-29 08:00:00,69.3,59.1,29.95,East,96,0.0,1.0,70,0.00,,CLR,0.00,VWS V14.01,2013-08-29 15:00:00,
2013-08-29 08:06:00,70.3,59.2,29.95,South,178,0.0,1.0,68,0.00,,CLR,0.00,VWS V14.01,2013-08-29 15:06:00,
2013-08-29 08:11:00,71.3,59.8,29.95,SSE,149,0.0,1.0,67,0.00,,CLR,0.00,VWS V14.01,2013-08-29 15:11:00,
2013-08-29 08:16:00,71.7,59.8,29.95,SSE,150,0.0,1.0,66,0.00,,CLR,0.00,VWS V14.01,2013-08-29 15:16:00,
2013-08-29 08:21:00,72.2,59.8,29.96,SSW,198,2.0,2.0,65,0.00,,CLR,0.00,VWS V14.01,2013-08-29 15:21:00,
2013-08-29 08:26:00,72.7,59.8,29.96,SSW,195,0.0,3.0,64,0.00,,CLR,0.00,VWS V14.01,2013-08-29 15:26:00,
2013-08-29 08:31:00,73.4,60.0,29.96,SSE,150,1.0,3.0,63,0.00,,CLR,0.00,VWS V14.01,2013-08-29 15:31:00,
2013-08-29 08:36:00,74.0,60.2,29.96,East,82,1.0,1.0,62,0.00,,CLR,0.00,VWS V14.01,2013-08-29 15:36:00,
2013-08-29 08:41:00,74.8,60.9,29.96,SSE,159,0.0,1.0,62,0.00,,CLR,0.00,VWS V14.01,2013-08-29 15:41:00,
2013-08-29 08:46:00,75.6,60.3,29.96,SSE,153,2.0,2.0,59,0.00,,CLR,0.00,VWS V14.01,2013-08-29 15:46:00,
2013-08-29 08:51:00,76.1,60.8,29.96,ESE,121,0.0,2.0,59,0.00,,CLR,0.00,VWS V14.01,2013-08-29 15:51:00,
2013-08-29 08:56:00,76.7,60.8,29.96,SE,141,1.0,2.0,58,0.00,,CLR,0.00,VWS V14.01,2013-08-29 15:56:00,
2013-08-29 09:01:00,77.3,60.4,29.96,SSE,160,0.0,2.0,56,0.00,,CLR,0.00,VWS V14.01,2013-08-29 16:01:00,
2013-08-29 09:06:00,77.6,60.7,29.97,South,173,1.0,3.0,56,0.00,,CLR,0.00,VWS V14.01,2013-08-29 16:06:00,
2013-08-29 09:11:00,77.8,60.9,29.97,SSW,198,1.0,3.0,56,0.00,,CLR,0.00,VWS V14.01,2013-08-29 16:11:00,
2013-08-29 09:16:00,77.9,60.5,29.97,SSW,204,2.0,3.0,55,0.00,,CLR,0.00,VWS V14.01,2013-08-29 16:16:00,
2013-08-29 09:21:00,78.0,61.0,29.97,South,188,3.0,4.0,56,0.00,,CLR,0.00,VWS V14.01,2013-08-29 16:21:00,
2013-08-29 09:26:00,78.1,60.6,29.97,SE,136,1.0,4.0,55,0.00,,CLR,0.00,VWS V14.01,2013-08-29 16:26:00,
2013-08-29 09:31:00,78.3,60.3,29.97,SSE,157,2.0,2.0,54,0.00,,CLR,0.00,VWS V14.01,2013-08-29 16:31:00,
2013-08-29 09:36:00,78.3,60.3,29.97,SSE,162,3.0,4.0,54,0.00,,CLR,0.00,VWS V14.01,2013-08-29 16:36:00,
2013-08-29 09:41:00,78.5,61.0,29.97,SSW,208,3.0,4.0,55,0.00,,CLR,0.00,VWS V14.01,2013-08-29 16:41:00,
2013-08-29 09:46:00,79.2,61.1,29.97,SSE,148,3.0,5.0,54,0.00,,CLR,0.00,VWS V14.01,2013-08-29 16:46:00,
2013-08-29 09:51:00,79.2,61.1,29.97,South,190,1.0,6.0,54,0.00,,CLR,0.00,VWS V14.01,2013-08-29 16:51:00,
2013-08-29 09:56:00,79.3,60.2,29.98,SSE,155,1.0,6.0,52,0.00,,CLR,0.00,VWS V14.01,2013-08-29 16:56:00,
2013-08-29 10:01:00,79.5,60.9,29.98,SSE,155,2.0,3.0,53,0.00,,CLR,0.00,VWS V14.01,2013-08-29 17:01:00,
2013-08-29 10:06:00,79.6,61.0,29.98,SSE,166,1.0,3.0,53,0.00,,CLR,0.00,VWS V14.01,2013-08-29 17:06:00,
2013-08-29 10:11:00,79.9,60.7,29.98,SW,219,3.0,6.0,52,0.00,,CLR,0.00,VWS V14.01,2013-08-29 17:11:00,
2013-08-29 10:16:00,80.2,61.5,29.97,SSW,195,3.0,6.0,53,0.00,,CLR,0.00,VWS V14.01,2013-08-29 17:16:00,
2013-08-29 10:21:00,80.5,61.3,29.97,South,169,2.0,6.0,52,0.00,,CLR,0.00,VWS V14.01,2013-08-29 17:21:00,
2013-08-29 10:26:00,80.5,61.8,29.97,SW,221,1.0,6.0,53,0.00,,CLR,0.00,VWS V14.01,2013-08-29 17:26:00,
2013-08-29 10:32:00,81.2,61.4,29.97,SW,216,2.0,2.0,51,0.00,,CLR,0.00,VWS V14.01,2013-08-29 17:32:00,
2013-08-29 10:37:00,81.5,61.7,29.97,SSE,149,5.0,5.0,51,0.00,,CLR,0.00,VWS V14.01,2013-08-29 17:37:00,
2013-08-29 10:42:00,81.7,61.8,29.97,ENE,77,5.0,6.0,51,0.00,,CLR,0.00,VWS V14.01,2013-08-29 17:42:00,
2013-08-29 10:47:00,81.8,61.9,29.97,SSW,193,5.0,6.0,51,0.00,,CLR,0.00,VWS V14.01,2013-08-29 17:47:00,
2013-08-29 10:52:00,81.7,61.8,29.97,South,179,1.0,6.0,51,0.00,,CLR,0.00,VWS V14.01,2013-08-29 17:52:00,
2013-08-29 10:57:00,82.1,62.2,29.98,South,170,3.0,7.0,51,0.00,,CLR,0.00,VWS V14.01,2013-08-29 17:57:00,
2013-08-29 11:02:00,82.2,61.7,29.98,SSW,212,4.0,5.0,50,0.00,,CLR,0.00,VWS V14.01,2013-08-29 18:02:00,
2013-08-29 11:07:00,82.2,61.7,29.98,SE,134,2.0,8.0,50,0.00,,CLR,0.00,VWS V14.01,2013-08-29 18:07:00,
2013-08-29 11:12:00,82.7,62.2,29.98,SSW,195,4.0,8.0,50,0.00,,CLR,0.00,VWS V14.01,2013-08-29 18:12:00,
2013-08-29 11:17:00,83.0,61.9,29.98,SSE,167,4.0,8.0,49,0.00,,CLR,0.00,VWS V14.01,2013-08-29 18:17:00,
2013-08-29 11:22:00,83.1,61.4,29.98,South,181,4.0,8.0,48,0.00,,CLR,0.00,VWS V14.01,2013-08-29 18:22:00,
2013-08-29 11:27:00,83.1,62.5,29.98,SW,222,4.0,10.0,50,0.00,,CLR,0.00,VWS V14.01,2013-08-29 18:27:00,
2013-08-29 11:32:00,83.4,61.7,29.98,South,184,3.0,7.0,48,0.00,,CLR,0.00,VWS V14.01,2013-08-29 18:32:00,
2013-08-29 11:37:00,83.4,61.7,29.98,SE,146,3.0,7.0,48,0.00,,CLR,0.00,VWS V14.01,2013-08-29 18:37:00,
2013-08-29 11:42:00,83.8,62.6,29.98,South,180,3.0,7.0,49,0.00,,CLR,0.00,VWS V14.01,2013-08-29 18:42:00,
2013-08-29 11:47:00,84.3,62.5,29.98,South,176,3.0,8.0,48,0.00,,CLR,0.00,VWS V14.01,2013-08-29 18:47:00,
2013-08-29 11:52:00,84.9,61.8,29.98,South,177,4.0,8.0,46,0.00,,CLR,0.00,VWS V14.01,2013-08-29 18:52:00,
2013-08-29 11:57:00,84.6,61.6,29.98,ESE,103,4.0,8.0,46,0.00,,CLR,0.00,VWS V14.01,2013-08-29 18:57:00,
2013-08-29 12:02:00,84.7,62.3,29.98,SSE,153,4.0,7.0,47,0.00,,CLR,0.00,VWS V14.01,2013-08-29 19:02:00,
2013-08-29 12:07:00,85.0,61.9,29.98,ENE,65,3.0,7.0,46,0.00,,CLR,0.00,VWS V14.01,2013-08-29 19:07:00,
2013-08-29 12:12:00,85.3,62.2,29.98,South,169,6.0,7.0,46,0.00,,CLR,0.00,VWS V14.01,2013-08-29 19:12:00,
2013-08-29 12:17:00,85.7,61.9,29.97,SE,143,6.0,12.0,45,0.00,,CLR,0.00,VWS V14.01,2013-08-29 19:17:00,
2013-08-29 12:22:00,85.4,62.3,29.97,ESE,102,3.0,12.0,46,0.00,,CLR,0.00,VWS V14.01,2013-08-29 19:22:00,
2013-08-29 12:27:00,85.9,62.1,29.97,NE,37,2.0,12.0,45,0.00,,CLR,0.00,VWS V14.01,2013-08-29 19:27:00,
2013-08-29 12:32:00,86.7,61.5,29.97,South,170,4.0,7.0,43,0.00,,CLR,0.00,VWS V14.01,2013-08-29 19:32:00,
2013-08-29 12:37:00,87.6,62.4,29.97,South,187,4.0,7.0,43,0.00,,CLR,0.00,VWS V14.01,2013-08-29 19:37:00,
2013-08-29 12:42:00,88.3,61.6,29.97,North,11,2.0,9.0,41,0.00,,CLR,0.00,VWS V14.01,2013-08-29 19:42:00,
2013-08-29 12:47:00,88.8,60.7,29.96,East,82,5.0,9.0,39,0.00,,CLR,0.00,VWS V14.01,2013-08-29 19:47:00,
2013-08-29 12:52:00,89.3,61.1,29.96,ESE,113,4.0,9.0,39,0.00,,CLR,0.00,VWS V14.01,2013-08-29 19:52:00,
2013-08-29 12:57:00,88.9,61.5,29.96,SSW,211,0.0,9.0,40,0.00,,CLR,0.00,VWS V14.01,2013-08-29 19:57:00,
2013-08-29 13:03:00,89.2,61.8,29.96,SSE,153,1.0,8.0,40,0.00,,CLR,0.00,VWS V14.01,2013-08-29 20:03:00,
2013-08-29 13:08:00,89.7,60.0,29.96,SSE,160,9.0,10.0,37,0.00,,CLR,0.00,VWS V14.01,2013-08-29 20:08:00,
2013-08-29 13:13:00,89.9,58.6,29.96,SSE,153,2.0,10.0,35,0.00,,CLR,0.00,VWS V14.01,2013-08-29 20:13:00,
2013-08-29 13:18:00,90.0,58.7,29.95,SSW,193,4.0,10.0,35,0.00,,CLR,0.00,VWS V14.01,2013-08-29 20:18:00,
2013-08-29 13:23:00,90.2,58.1,29.95,SSW,201,8.0,10.0,34,0.00,,CLR,0.00,VWS V14.01,2013-08-29 20:23:00,
2013-08-29 13:28:00,90.2,58.1,29.95,SSW,202,6.0,10.0,34,0.00,,CLR,0.00,VWS V14.01,2013-08-29 20:28:00,
2013-08-29 13:33:00,90.2,58.1,29.95,SE,131,4.0,12.0,34,0.00,,CLR,0.00,VWS V14.01,2013-08-29 20:33:00,
2013-08-29 13:38:00,90.5,57.5,29.95,SW,217,2.0,12.0,33,0.00,,CLR,0.00,VWS V14.01,2013-08-29 20:38:00,
2013-08-29 13:43:00,91.1,58.0,29.95,South,169,3.0,12.0,33,0.00,,CLR,0.00,VWS V14.01,2013-08-29 20:43:00,
2013-08-29 13:48:00,91.1,58.0,29.95,ENE,57,5.0,12.0,33,0.00,,CLR,0.00,VWS V14.01,2013-08-29 20:48:00,
2013-08-29 13:53:00,91.2,58.1,29.95,SE,146,5.0,12.0,33,0.00,,CLR,0.00,VWS V14.01,2013-08-29 20:53:00,
2013-08-29 13:58:00,91.0,56.2,29.95,SSW,204,2.0,12.0,31,0.00,,CLR,0.00,VWS V14.01,2013-08-29 20:58:00,
2013-08-29 14:03:00,91.0,57.1,29.95,SW,229,8.0,9.0,32,0.00,,CLR,0.00,VWS V14.01,2013-08-29 21:03:00,
2013-08-29 14:08:00,91.4,57.4,29.95,SW,223,2.0,10.0,32,0.00,,CLR,0.00,VWS V14.01,2013-08-29 21:08:00,
2013-08-29 14:13:00,91.6,56.7,29.95,SSW,193,3.0,11.0,31,0.00,,CLR,0.00,VWS V14.01,2013-08-29 21:13:00,
2013-08-29 14:18:00,92.3,58.2,29.95,SSE,157,10.0,11.0,32,0.00,,CLR,0.00,VWS V14.01,2013-08-29 21:18:00,
2013-08-29 14:23:00,92.2,53.4,29.95,South,169,2.0,11.0,27,0.00,,CLR,0.00,VWS V14.01,2013-08-29 21:23:00,
2013-08-29 14:28:00,92.3,54.5,29.95,South,169,2.0,11.0,28,0.00,,CLR,0.00,VWS V14.01,2013-08-29 21:28:00,
2013-08-29 14:33:00,93.0,55.1,29.94,South,169,6.0,7.0,28,0.00,,CLR,0.00,VWS V14.01,2013-08-29 21:33:00,
2013-08-29 14:38:00,93.3,54.4,29.94,South,181,1.0,9.0,27,0.00,,CLR,0.00,VWS V14.01,2013-08-29 21:38:00,
2013-08-29 14:43:00,93.2,57.2,29.94,South,180,6.0,9.0,30,0.00,,CLR,0.00,VWS V14.01,2013-08-29 21:43:00,
2013-08-29 14:48:00,92.7,59.4,29.94,SW,223,9.0,12.0,33,0.00,,CLR,0.00,VWS V14.01,2013-08-29 21:48:00,
2013-08-29 14:53:00,92.0,57.9,29.94,South,181,5.0,12.0,32,0.00,,CLR,0.00,VWS V14.01,2013-08-29 21:53:00,
2013-08-29 14:58:00,91.8,59.5,29.94,SSE,150,4.0,12.0,34,0.00,,CLR,0.00,VWS V14.01,2013-08-29 21:58:00,
2013-08-29 15:03:00,91.8,56.9,29.94,South,174,6.0,12.0,31,0.00,,CLR,0.00,VWS V14.01,2013-08-29 22:03:00,
2013-08-29 15:08:00,92.1,56.2,29.94,SSW,193,4.0,12.0,30,0.00,,CLR,0.00,VWS V14.01,2013-08-29 22:08:00,
2013-08-29 15:13:00,92.2,59.8,29.94,SSW,208,11.0,12.0,34,0.00,,CLR,0.00,VWS V14.01,2013-08-29 22:13:00,
2013-08-29 15:18:00,91.9,59.5,29.94,SW,235,8.0,14.0,34,0.00,,CLR,0.00,VWS V14.01,2013-08-29 22:18:00,
2013-08-29 15:24:00,91.7,59.4,29.93,SSE,165,2.0,14.0,34,0.00,,CLR,0.00,VWS V14.01,2013-08-29 22:24:00,
2013-08-29 15:29:00,92.2,59.8,29.93,South,188,8.0,14.0,34,0.00,,CLR,0.00,VWS V14.01,2013-08-29 22:29:00,
2013-08-29 15:34:00,92.4,58.3,29.93,SSE,158,2.0,7.0,32,0.00,,CLR,0.00,VWS V14.01,2013-08-29 22:34:00,
2013-08-29 15:39:00,92.6,59.3,29.93,SSW,201,5.0,11.0,33,0.00,,CLR,0.00,VWS V14.01,2013-08-29 22:39:00,
2013-08-29 15:44:00,92.6,54.8,29.93,SSW,194,2.0,11.0,28,0.00,,CLR,0.00,VWS V14.01,2013-08-29 22:44:00,
2013-08-29 15:49:00,93.1,55.2,29.93,South,181,2.0,11.0,28,0.00,,CLR,0.00,VWS V14.01,2013-08-29 22:49:00,
2013-08-29 15:54:00,93.1,55.2,29.93,SE,142,6.0,11.0,28,0.00,,CLR,0.00,VWS V14.01,2013-08-29 22:54:00,
2013-08-29 15:59:00,93.2,52.2,29.93,SSW,212,4.0,11.0,25,0.00,,CLR,0.00,VWS V14.01,2013-08-29 22:59:00,
2013-08-29 16:04:00,93.3,53.3,29.93,SSW,204,2.0,6.0,26,0.00,,CLR,0.00,VWS V14.01,2013-08-29 23:04:00,
2013-08-29 16:09:00,93.6,52.5,29.93,SE,139,7.0,9.0,25,0.00,,CLR,0.00,VWS V14.01,2013-08-29 23:09:00,
2013-08-29 16:14:00,93.5,54.5,29.93,SW,219,4.0,9.0,27,0.00,,CLR,0.00,VWS V14.01,2013-08-29 23:14:00,
2013-08-29 16:19:00,93.6,53.6,29.93,SSE,157,3.0,10.0,26,0.00,,CLR,0.00,VWS V14.01,2013-08-29 23:19:00,
2013-08-29 16:24:00,93.5,53.5,29.93,SW,217,2.0,10.0,26,0.00,,CLR,0.00,VWS V14.01,2013-08-29 23:24:00,
2013-08-29 16:29:00,93.7,53.7,29.92,South,191,3.0,10.0,26,0.00,,CLR,0.00,VWS V14.01,2013-08-29 23:29:00,
2013-08-29 16:34:00,93.7,53.7,29.92,SW,216,4.0,7.0,26,0.00,,CLR,0.00,VWS V14.01,2013-08-29 23:34:00,
2013-08-29 16:39:00,94.0,52.9,29.92,ESE,110,3.0,7.0,25,0.00,,CLR,0.00,VWS V14.01,2013-08-29 23:39:00,
2013-08-29 16:44:00,94.4,54.3,29.92,SSW,193,2.0,7.0,26,0.00,,CLR,0.00,VWS V14.01,2013-08-29 23:44:00,
2013-08-29 16:49:00,94.5,54.3,29.92,WSW,239,2.0,7.0,26,0.00,,CLR,0.00,VWS V14.01,2013-08-29 23:49:00,
2013-08-29 16:54:00,94.2,54.1,29.92,West,269,3.0,8.0,26,0.00,,CLR,0.00,VWS V14.01,2013-08-29 23:54:00,
2013-08-29 16:59:00,93.9,53.8,29.92,SSE,149,1.0,8.0,26,0.00,,CLR,0.00,VWS V14.01,2013-08-29 23:59:00,
2013-08-29 17:04:00,93.9,53.8,29.92,SW,215,1.0,6.0,26,0.00,,CLR,0.00,VWS V14.01,2013-08-30 00:04:00,
2013-08-29 17:09:00,94.0,53.9,29.92,WNW,290,1.0,8.0,26,0.00,,CLR,0.00,VWS V14.01,2013-08-30 00:09:00,
2013-08-29 17:14:00,94.1,52.9,29.92,SE,143,1.0,8.0,25,0.00,,CLR,0.00,VWS V14.01,2013-08-30 00:14:00,
2013-08-29 17:19:00,93.9,53.8,29.92,West,263,2.0,8.0,26,0.00,,CLR,0.00,VWS V14.01,2013-08-30 00:19:00,
2013-08-29 17:24:00,93.5,53.5,29.91,WSW,257,1.0,8.0,26,0.00,,CLR,0.00,VWS V14.01,2013-08-30 00:24:00,
2013-08-29 17:29:00,93.7,53.7,29.91,SSW,201,2.0,8.0,26,0.00,,CLR,0.00,VWS V14.01,2013-08-30 00:29:00,
2013-08-29 17:34:00,93.6,53.6,29.91,SSW,200,1.0,8.0,26,0.00,,CLR,0.00,VWS V14.01,2013-08-30 00:34:00,
2013-08-29 17:39:00,93.4,56.4,29.91,WSW,255,2.0,8.0,29,0.00,,CLR,0.00,VWS V14.01,2013-08-30 00:39:00,
2013-08-29 17:44:00,93.2,55.3,29.91,North,8,2.0,8.0,28,0.00,,CLR,0.00,VWS V14.01,2013-08-30 00:44:00,
2013-08-29 17:49:00,93.4,56.4,29.91,South,169,2.0,8.0,29,0.00,,CLR,0.00,VWS V14.01,2013-08-30 00:49:00,
2013-08-29 17:54:00,93.5,56.5,29.91,SW,218,4.0,8.0,29,0.00,,CLR,0.00,VWS V14.01,2013-08-30 00:54:00,
2013-08-29 17:59:00,93.6,56.6,29.91,WNW,285,4.0,8.0,29,0.00,,CLR,0.00,VWS V14.01,2013-08-30 00:59:00,
2013-08-29 18:04:00,93.3,56.3,29.91,South,181,3.0,3.0,29,0.00,,CLR,0.00,VWS V14.01,2013-08-30 01:04:00,
2013-08-29 18:09:00,93.2,57.2,29.91,ESE,113,0.0,3.0,30,0.00,,CLR,0.00,VWS V14.01,2013-08-30 01:09:00,
2013-08-29 18:14:00,92.9,56.9,29.91,SSW,193,3.0,4.0,30,0.00,,CLR,0.00,VWS V14.01,2013-08-30 01:14:00,
2013-08-29 18:19:00,92.5,57.5,29.91,SE,146,1.0,4.0,31,0.00,,CLR,0.00,VWS V14.01,2013-08-30 01:19:00,
2013-08-29 18:24:00,92.3,56.4,29.91,West,281,1.0,4.0,30,0.00,,CLR,0.00,VWS V14.01,2013-08-30 01:24:00,
2013-08-29 18:29:00,92.4,57.4,29.91,SE,138,1.0,4.0,31,0.00,,CLR,0.00,VWS V14.01,2013-08-30 01:29:00,
2013-08-29 18:34:00,91.7,56.8,29.91,West,278,0.0,8.0,31,0.00,,CLR,0.00,VWS V14.01,2013-08-30 01:34:00,
2013-08-29 18:39:00,91.6,56.7,29.90,SSW,212,3.0,8.0,31,0.00,,CLR,0.00,VWS V14.01,2013-08-30 01:39:00,
2013-08-29 18:44:00,91.5,57.5,29.90,WNW,288,2.0,8.0,32,0.00,,CLR,0.00,VWS V14.01,2013-08-30 01:44:00,
2013-08-29 18:49:00,91.1,58.0,29.90,SE,145,0.0,8.0,33,0.00,,CLR,0.00,VWS V14.01,2013-08-30 01:49:00,
2013-08-29 18:54:00,90.8,57.8,29.90,SE,141,1.0,8.0,33,0.00,,CLR,0.00,VWS V14.01,2013-08-30 01:54:00,
2013-08-29 18:59:00,90.3,57.3,29.90,SSW,211,2.0,8.0,33,0.00,,CLR,0.00,VWS V14.01,2013-08-30 01:59:00,
2013-08-29 19:04:00,90.1,58.0,29.90,SSE,150,1.0,2.0,34,0.00,,CLR,0.00,VWS V14.01,2013-08-30 02:04:00,
2013-08-29 19:09:00,89.8,57.7,29.90,SE,146,0.0,2.0,34,0.00,,CLR,0.00,VWS V14.01,2013-08-30 02:09:00,
2013-08-29 19:14:00,89.6,57.5,29.90,SSW,208,0.0,3.0,34,0.00,,CLR,0.00,VWS V14.01,2013-08-30 02:14:00,
2013-08-29 19:19:00,89.0,57.0,29.90,South,188,1.0,3.0,34,0.00,,CLR,0.00,VWS V14.01,2013-08-30 02:19:00,
2013-08-29 19:24:00,87.6,57.4,29.90,South,180,1.0,3.0,36,0.00,,CLR,0.00,VWS V14.01,2013-08-30 02:24:00,
2013-08-29 19:29:00,86.5,57.2,29.90,SW,225,0.0,3.0,37,0.00,,CLR,0.00,VWS V14.01,2013-08-30 02:29:00,